Weather in Varfolomeyevka

Russia / Primorsky Krai     44°18′00″N   133°27′24″E
temp.,
°C
wind,
m/s
gust,
m/s
humid.,
%
clouds,
%
prec.,
mm/h
press.,
hPa
HPBL,
m
26 january, tue
tue2601:00−9ese229144 0.0 102823
04:00−9se228972 0.0 102639
07:00−6ese3983100 0.0 1024272
10:00−5se2582100 0.0 1021224
13:00−1se2685100 0.3 1019456
16:00+1se2688100 0.4 1016486
19:00−2sse0095100 0.5 101534
22:00−2wsw1499100 5.3 1014194
27 january, wed
wed2701:00−4sse1197100 1.9 101422
04:00−7nw2794100 2.4 1015620
07:00−13w369073 0.2 1018125
10:00−14w388736 0.2 1020320
13:00−10wnw610700 0.0 10211281
16:00−11w587334 0.1 10211220
19:00−16wsw258829 0.0 102493
22:00−19sw128914 0.0 102520
28 january, thu
thu2801:00−20ssw128888 0.0 102520
04:00−21sse118858 0.0 102520
07:00−22ese128819 0.0 102320
10:00−19e118527 0.0 102272
13:00−11ene247182 0.0 1017423
16:00−11nne369191 0.3 1013412
19:00−12nne4995100 2.3 1011457
22:00−12nne51194100 4.1 1008601
29 january, fri
fri2901:00−13nne41194100 1.5 1006666
04:00−16n31195100 3.8 1004699
07:00−18nnw51495100 2.9 1005781
10:00−20nnw51296100 4.8 1008935
13:00−20nnw41095100 1.0 1011902
16:00−20nnw4992100 1.6 1013883
19:00−22n2596100 0.2 1017306
22:00−24n2596100 0.3 1020224
30 january, sat
sat3001:00−27wnw119799 0.0 102123
04:00−31sw119969 0.0 102419
07:00−31se119732 0.0 102519
10:00−27ese119418 0.0 102458
13:00−19nnw107944 0.0 1023331
16:00−17nnw117871 0.0 1022353
19:00−24nw119250 0.0 102320
22:00−25ne019457 0.0 102420